Powrót do katalogu

NAVSTAR 32

USA 91

AktywnyNawigacjaMEO
NORAD 22657·PAYLOAD·🇺🇸 United States

Wystrzelony May 13, 1993 z Cape Canaveral Space Force Station

Loading…

Następne Przeloty (najbliższe 24 godziny)

TLE

ŚwieżeSource: Space-Track

Epoka: Sep 9, 2026, 04:17 UTC

1 22657U 93032A   26252.17892161 -.00000003  00000-0  00000+0 0  9994
2 22657  53.4405 277.5868 0037502  95.2283 262.2912  1.87695960235470

Śledź NAVSTAR 32 w czasie rzeczywistym z AllMySat

Download on the App Store